sat.trackr.live / text

‹ back to catalog

STARLINK-11745 [DTC]

NORAD 64376 · 2025-127G

PAYLOAD ACTIVE UNKNOWN

§ Identity

Operator
Country
US
Launch date
2025-06-13
Launch site
AFETR
Launch vehicle
Mass (kg)
RCS (m²)

Purposes: comms

External: N2YO · Heavens-Above · Gunter

§ Orbital elements

Epoch: 2026-05-24T22:23:37.379328Z

Period
91.67 min
Inclination
43.0022°
Eccentricity
0.0001776
Mean motion
15.70879468 rev/d
Perigee alt
355.2 km
Apogee alt
357.6 km
Semi-major
6,734.5 km
B*
1.4672e-3
RAAN
344.9502°
Arg perigee
266.3602°
Mean anomaly
93.7062°
Rev number
5,549

§ Raw data

STARLINK-11745 [DTC]1 64376U 25127G   26144.93307152  .00192554  00000+0  14672-2 0  99972 64376  43.0022 344.9502 0001776 266.3602  93.7062 15.70879468 55497

JSON: /api/v1/satellites/64376 · /tle

For live sub-satellite position, see the globe view (requires WebGL).

§ Visibility from observer

Set your observer location to see the next 7 days of passes ≥ 10°. The values pass through the URL so the page stays shareable.

No JS? Fill the form by hand. The geolocation button needs JavaScript.